Date String (YYYY-MM-DD hh:mm:ss) UTC,Instrument flags,Ambient pressure (hPa),Sample flow (lpm),Bypass flow (lpm),Sample temperature (°C),Ambient temperature (°C),ASC tube jacket temperature (°C),LED temperature (°C),Box temperature (°C),Sample RH (%),Span deviation,Mass concentration (μg/m³),Mass concentration (μg/m³),Mass concentration (μg/m³)
DateTimeUTC,F1_M11,P_M11,Q1_M11,Q2_M11,T1_M11,T2_M11,T3_M11,T4_M11,T5_M11,U1_M11,ZSPAN_M11,X2_M11,X0_M11,X1_M11
2023-05-01 07:00:00,,0828.6,5.00,0.00,27.6,25.7,00.0,36.2,29.1,14.1,0000.0,0004.27,0012.72,0002.95
2023-05-01 07:01:00,,0828.6,5.01,0.00,27.6,25.7,00.0,36.2,29.1,14.3,0000.0,0004.33,0011.97,0002.98
2023-05-01 07:02:00,,0828.6,5.00,0.00,27.6,25.7,00.0,36.1,29.1,14.3,0000.0,0004.36,0011.74,0003.00
2023-05-01 07:03:00,,0828.6,5.00,0.00,27.6,25.7,00.0,36.1,29.1,14.1,0000.0,0004.39,0012.01,0002.99
2023-05-01 07:04:00,,0828.6,4.98,0.00,27.5,25.7,00.0,36.1,29.0,13.9,0000.0,0004.38,0011.95,0002.99
2023-05-01 07:05:00,,0828.6,5.00,0.00,27.5,25.7,00.0,36.1,29.0,13.8,0000.0,0004.39,0011.41,0002.98
2023-05-01 07:06:00,,0828.6,5.01,0.00,27.5,25.7,00.0,36.1,29.0,13.7,0000.0,0004.40,0011.32,0002.98
2023-05-01 07:07:00,,0828.6,5.01,0.00,27.5,25.7,00.0,36.1,29.0,13.9,0000.0,0004.40,0010.79,0002.98
2023-05-01 07:08:00,,0828.5,4.99,0.00,27.5,25.7,00.0,36.0,29.0,13.9,0000.0,0004.38,0010.72,0002.98
2023-05-01 07:09:00,,0828.6,4.99,0.00,27.5,25.6,00.0,36.0,29.0,13.8,0000.0,0004.38,0010.85,0002.97
2023-05-01 07:10:00,,0828.6,5.00,0.00,27.4,25.6,00.0,36.0,29.0,13.9,0000.0,0004.36,0010.94,0002.95
2023-05-01 07:11:00,,0828.6,5.00,0.00,27.4,25.6,00.0,36.0,29.0,14.2,0000.0,0004.35,0010.31,0002.94
2023-05-01 07:12:00,,0828.5,5.01,0.00,27.4,25.5,00.0,36.0,28.9,14.2,0000.0,0004.30,0010.26,0002.93
2023-05-01 07:13:00,,0828.5,5.01,0.00,27.4,25.5,00.0,36.0,28.9,14.4,0000.0,0004.33,0010.85,0002.94
2023-05-01 07:14:00,,0828.6,5.00,0.00,27.4,25.5,00.0,35.9,28.9,14.4,0000.0,0004.34,0010.99,0002.97
2023-05-01 07:15:00,,0828.5,4.99,0.00,27.4,25.5,00.0,35.9,28.8,14.6,0000.0,0004.29,0010.72,0002.99
2023-05-01 07:16:00,,0828.5,5.00,0.00,27.4,25.5,00.0,35.9,28.8,14.8,0000.0,0004.29,0011.04,0003.00
2023-05-01 07:17:00,,0828.4,5.00,0.00,27.3,25.5,00.0,35.9,28.8,14.8,0000.0,0004.31,0011.70,0003.02
2023-05-01 07:18:00,,0828.4,5.00,0.00,27.3,25.5,00.0,35.9,28.8,14.8,0000.0,0004.34,0012.53,0003.04
2023-05-01 07:19:00,,0828.4,4.99,0.00,27.3,25.5,00.0,35.9,28.8,14.8,0000.0,0004.38,0012.66,0003.07
2023-05-01 07:20:00,,0828.4,5.00,0.00,27.3,25.4,00.0,35.8,28.8,14.8,0000.0,0004.40,0012.50,0003.11
2023-05-01 07:21:00,,0828.4,4.99,0.00,27.3,25.4,00.0,35.8,28.8,14.9,0000.0,0004.43,0012.45,0003.14
2023-05-01 07:22:00,,0828.4,5.01,0.00,27.2,25.4,00.0,35.8,28.7,14.9,0000.0,0004.45,0013.34,0003.15
2023-05-01 07:23:00,,0828.4,5.01,0.00,27.2,25.4,00.0,35.8,28.7,14.8,0000.0,0004.47,0013.92,0003.16
2023-05-01 07:24:00,,0828.4,4.99,0.00,27.2,25.4,00.0,35.8,28.7,14.7,0000.0,0004.43,0013.28,0003.16
2023-05-01 07:25:00,,0828.4,5.00,0.00,27.2,25.4,00.0,35.8,28.7,14.7,0000.0,0004.42,0013.00,0003.15
2023-05-01 07:26:00,,0828.3,5.01,0.00,27.2,25.4,00.0,35.7,28.7,14.8,0000.0,0004.47,0012.94,0003.16
2023-05-01 07:27:00,,0828.3,5.00,0.00,27.2,25.4,00.0,35.7,28.7,15.0,0000.0,0004.51,0012.69,0003.18
2023-05-01 07:28:00,,0828.3,5.00,0.00,27.2,25.3,00.0,35.7,28.7,15.2,0000.0,0004.52,0012.36,0003.20
2023-05-01 07:29:00,,0828.3,5.00,0.00,27.1,25.3,00.0,35.7,28.6,15.2,0000.0,0004.51,0012.27,0003.22
2023-05-01 07:30:00,,0828.3,5.01,0.00,27.1,25.3,00.0,35.7,28.6,15.0,0000.0,0004.54,0012.69,0003.23
2023-05-01 07:31:00,,0828.3,5.00,0.00,27.1,25.3,00.0,35.7,28.6,15.1,0000.0,0004.54,0012.76,0003.22
2023-05-01 07:32:00,,0828.4,5.00,0.00,27.1,25.3,00.0,35.6,28.6,15.1,0000.0,0004.51,0013.49,0003.22
2023-05-01 07:33:00,,0828.3,5.00,0.00,27.1,25.3,00.0,35.6,28.6,15.1,0000.0,0004.51,0013.20,0003.22
2023-05-01 07:34:00,,0828.3,4.99,0.00,27.1,25.3,00.0,35.6,28.6,15.0,0000.0,0004.53,0012.24,0003.23
2023-05-01 07:35:00,,0828.3,5.00,0.00,27.1,25.3,00.0,35.6,28.5,15.0,0000.0,0004.51,0012.06,0003.22
2023-05-01 07:36:00,,0828.2,5.00,0.00,27.0,25.2,00.0,35.6,28.5,15.0,0000.0,0004.51,0012.26,0003.23
2023-05-01 07:37:00,,0828.2,5.00,0.00,27.0,25.2,00.0,35.6,28.5,15.1,0000.0,0004.55,0012.61,0003.23
2023-05-01 07:38:00,,0828.2,5.00,0.00,27.0,25.2,00.0,35.5,28.5,15.1,0000.0,0004.54,0012.66,0003.23
2023-05-01 07:39:00,,0828.2,5.01,0.00,27.0,25.3,00.0,35.5,28.5,15.0,0000.0,0004.54,0012.87,0003.22
2023-05-01 07:40:00,,0828.2,5.00,0.00,27.0,25.3,00.0,35.5,28.4,15.0,0000.0,0004.58,0012.46,0003.22
2023-05-01 07:41:00,,0828.2,5.00,0.00,27.0,25.2,00.0,35.5,28.5,15.1,0000.0,0004.61,0012.17,0003.21
2023-05-01 07:42:00,,0828.2,4.99,0.00,26.9,25.2,00.0,35.5,28.5,15.1,0000.0,0004.63,0012.20,0003.22
2023-05-01 07:43:00,,0828.2,5.00,0.00,26.9,25.2,00.0,35.5,28.4,15.1,0000.0,0004.66,0011.65,0003.22
2023-05-01 07:44:00,,0828.1,5.00,0.00,26.9,25.2,00.0,35.5,28.4,15.0,0000.0,0004.64,0011.80,0003.22
2023-05-01 07:45:00,,0828.2,5.01,0.00,26.9,25.2,00.0,35.4,28.4,15.0,0000.0,0004.62,0011.97,0003.22
2023-05-01 07:46:00,,0828.1,5.01,0.00,26.9,25.2,00.0,35.4,28.4,15.1,0000.0,0004.64,0012.17,0003.23
2023-05-01 07:47:00,,0828.1,5.00,0.00,26.9,25.1,00.0,35.4,28.4,15.1,0000.0,0004.70,0012.31,0003.23
2023-05-01 07:48:00,,0828.1,4.98,0.00,26.9,25.1,00.0,35.4,28.4,15.2,0000.0,0004.71,0012.10,0003.22
2023-05-01 07:49:00,,0828.1,5.00,0.00,26.8,25.1,00.0,35.4,28.3,15.4,0000.0,0004.70,0012.08,0003.21
2023-05-01 07:50:00,,0828.1,5.01,0.00,26.8,25.0,00.0,35.4,28.3,15.2,0000.0,0004.77,0012.12,0003.21
2023-05-01 07:51:00,,0828.1,5.01,0.00,26.8,25.0,00.0,35.3,28.3,15.0,0000.0,0004.79,0012.17,0003.21
2023-05-01 07:52:00,,0828.1,5.00,0.00,26.8,25.1,00.0,35.3,28.3,15.1,0000.0,0004.74,0011.76,0003.21
2023-05-01 07:53:00,,0828.1,5.00,0.00,26.8,25.1,00.0,35.3,28.3,15.2,0000.0,0004.71,0011.76,0003.20
2023-05-01 07:54:00,,0828.1,5.01,0.00,26.7,25.0,00.0,35.3,28.2,15.2,0000.0,0004.75,0012.74,0003.19
2023-05-01 07:55:00,,0828.1,5.00,0.00,26.7,25.0,00.0,35.3,28.2,15.2,0000.0,0004.77,0013.32,0003.19
2023-05-01 07:56:00,,0828.1,4.99,0.00,26.7,25.0,00.0,35.3,28.2,15.1,0000.0,0004.74,0013.39,0003.17
2023-05-01 07:57:00,,0828.1,4.99,0.00,26.7,24.9,00.0,35.2,28.2,15.1,0000.0,0004.76,0013.23,0003.18
2023-05-01 07:58:00,,0828.1,5.01,0.00,26.7,24.9,00.0,35.2,28.2,15.2,0000.0,0004.78,0013.35,0003.19
2023-05-01 07:59:00,,0828.0,5.00,0.00,26.6,24.9,00.0,35.2,28.1,15.3,0000.0,0004.75,0013.63,0003.20
